Time,TemperatureF,DewpointF,PressureIn,WindDirection,WindDirectionDegrees,WindSpeedMPH,WindSpeedGustMPH,Humidity,HourlyPrecipIn,Conditions,Clouds,dailyrainin,SolarRadiationWatts/m^2,SoftwareType,DateUTC
2013-09-04 00:04:00,59.0,55.0,-100.00,WSW,240,5.0,9.0,87,0.00,,,0.00,0.000000,,2013-09-04 04:04:00,
2013-09-04 00:14:00,59.0,55.0,-100.00,WSW,240,5.0,9.0,87,0.00,,,0.00,0.000000,,2013-09-04 04:14:00,
2013-09-04 00:24:00,59.0,55.0,-100.00,WSW,240,5.0,9.0,87,0.00,,,0.00,0.000000,,2013-09-04 04:24:00,
2013-09-04 00:54:00,58.0,54.0,-100.00,WSW,244,5.0,9.0,88,0.00,,,0.00,0.000000,,2013-09-04 04:54:00,
2013-09-04 01:03:00,58.0,54.0,-100.00,WSW,244,5.0,9.0,88,0.00,,,0.00,0.000000,,2013-09-04 05:03:00,
2013-09-04 01:13:00,58.0,54.0,-100.00,WSW,244,5.0,9.0,88,0.00,,,0.00,0.000000,,2013-09-04 05:13:00,
2013-09-04 01:23:00,58.0,54.0,-100.00,WSW,244,5.0,9.0,88,0.00,,,0.00,0.000000,,2013-09-04 05:23:00,
2013-09-04 01:53:00,57.0,53.0,-100.00,WSW,249,4.0,8.0,86,0.00,,,0.00,0.000000,,2013-09-04 05:53:00,
2013-09-04 02:02:00,57.0,53.0,-100.00,WSW,249,4.0,8.0,86,0.00,,,0.00,0.000000,,2013-09-04 06:02:00,
2013-09-04 02:12:00,57.0,53.0,-100.00,WSW,249,4.0,8.0,86,0.00,,,0.00,0.000000,,2013-09-04 06:12:00,
2013-09-04 02:22:00,57.0,53.0,-100.00,WSW,249,4.0,8.0,86,0.00,,,0.00,0.000000,,2013-09-04 06:22:00,
2013-09-04 02:52:00,56.0,52.0,-100.00,WSW,257,4.0,7.0,87,0.00,,,0.00,0.000000,,2013-09-04 06:52:00,
2013-09-04 03:02:00,56.0,52.0,-100.00,WSW,257,4.0,7.0,87,0.00,,,0.00,0.000000,,2013-09-04 07:02:00,
2013-09-04 03:12:00,56.0,52.0,-100.00,WSW,257,4.0,7.0,87,0.00,,,0.00,0.000000,,2013-09-04 07:12:00,
2013-09-04 03:22:00,56.0,52.0,-100.00,WSW,257,4.0,7.0,87,0.00,,,0.00,0.000000,,2013-09-04 07:22:00,
2013-09-04 03:52:00,55.0,52.0,-100.00,SW,223,2.0,6.0,90,0.00,,,0.00,0.000000,,2013-09-04 07:52:00,
2013-09-04 04:02:00,55.0,52.0,-100.00,SW,223,2.0,6.0,90,0.00,,,0.00,0.000000,,2013-09-04 08:02:00,
2013-09-04 04:13:00,55.0,52.0,-100.00,SW,223,2.0,6.0,90,0.00,,,0.00,0.000000,,2013-09-04 08:13:00,
2013-09-04 04:22:00,55.0,52.0,-100.00,SW,223,2.0,6.0,90,0.00,,,0.00,0.000000,,2013-09-04 08:22:00,
2013-09-04 04:52:00,55.0,52.0,-100.00,West,261,2.0,5.0,91,0.00,,,0.00,0.000000,,2013-09-04 08:52:00,
2013-09-04 05:01:00,55.0,52.0,-100.00,West,261,2.0,5.0,91,0.00,,,0.00,0.000000,,2013-09-04 09:01:00,
2013-09-04 05:12:00,55.0,52.0,-100.00,West,261,2.0,5.0,91,0.00,,,0.00,0.000000,,2013-09-04 09:12:00,
2013-09-04 05:22:00,55.0,52.0,-100.00,West,261,2.0,5.0,91,0.00,,,0.00,0.000000,,2013-09-04 09:22:00,
2013-09-04 05:53:00,56.0,53.0,-100.00,SW,228,4.0,7.0,91,0.00,,,-99.99,0.000000,,2013-09-04 09:53:00,
2013-09-04 06:03:00,56.0,53.0,-100.00,SW,228,4.0,7.0,91,0.00,,,-99.99,0.000000,,2013-09-04 10:03:00,
2013-09-04 06:12:00,56.0,53.0,-100.00,SW,228,4.0,7.0,91,0.00,,,-99.99,0.000000,,2013-09-04 10:12:00,
2013-09-04 06:23:00,56.0,53.0,-100.00,SW,228,4.0,7.0,91,0.00,,,-99.99,0.000000,,2013-09-04 10:23:00,
2013-09-04 06:52:00,57.0,55.0,-100.00,SW,230,4.0,8.0,92,0.00,,,0.00,0.000000,,2013-09-04 10:52:00,
2013-09-04 07:03:00,57.0,55.0,-100.00,SW,230,4.0,8.0,92,0.00,,,0.00,0.000000,,2013-09-04 11:03:00,
2013-09-04 07:12:00,57.0,55.0,-100.00,SW,230,4.0,8.0,92,0.00,,,0.00,0.000000,,2013-09-04 11:12:00,
2013-09-04 07:22:00,57.0,55.0,-100.00,SW,230,4.0,8.0,92,0.00,,,0.00,0.000000,,2013-09-04 11:22:00,
2013-09-04 07:52:00,58.0,55.0,-100.00,WSW,243,6.0,9.0,90,0.00,,,0.00,8.000000,,2013-09-04 11:52:00,
2013-09-04 08:02:00,58.0,55.0,-100.00,WSW,243,6.0,9.0,90,0.00,,,0.00,8.000000,,2013-09-04 12:02:00,
2013-09-04 08:12:00,58.0,55.0,-100.00,WSW,243,6.0,9.0,90,0.00,,,0.00,8.000000,,2013-09-04 12:12:00,
2013-09-04 08:21:00,58.0,55.0,-100.00,WSW,243,6.0,9.0,90,0.00,,,0.00,8.000000,,2013-09-04 12:21:00,
2013-09-04 08:52:00,63.0,57.0,-100.00,WSW,240,5.0,11.0,80,0.00,,,0.00,103.000000,,2013-09-04 12:52:00,
2013-09-04 09:02:00,63.0,57.0,-100.00,WSW,240,5.0,11.0,80,0.00,,,0.00,103.000000,,2013-09-04 13:02:00,
2013-09-04 09:12:00,63.0,57.0,-100.00,WSW,240,5.0,11.0,80,0.00,,,0.00,103.000000,,2013-09-04 13:12:00,
2013-09-04 09:22:00,63.0,57.0,-100.00,WSW,240,5.0,11.0,80,0.00,,,0.00,103.000000,,2013-09-04 13:22:00,
2013-09-04 09:52:00,67.0,58.0,-100.00,West,261,7.0,11.0,73,0.00,,,0.00,314.000000,,2013-09-04 13:52:00,
2013-09-04 10:02:00,67.0,58.0,-100.00,West,261,7.0,11.0,73,0.00,,,0.00,314.000000,,2013-09-04 14:02:00,
2013-09-04 10:11:00,67.0,58.0,-100.00,West,261,7.0,11.0,73,0.00,,,0.00,314.000000,,2013-09-04 14:11:00,
2013-09-04 10:21:00,67.0,58.0,-100.00,West,261,7.0,11.0,73,0.00,,,0.00,314.000000,,2013-09-04 14:21:00,
2013-09-04 10:52:00,70.0,54.0,-100.00,WSW,258,11.0,19.0,57,0.00,,,0.00,462.000000,,2013-09-04 14:52:00,
2013-09-04 11:02:00,70.0,54.0,-100.00,WSW,258,11.0,19.0,57,0.00,,,0.00,462.000000,,2013-09-04 15:02:00,
2013-09-04 11:12:00,70.0,54.0,-100.00,WSW,258,11.0,19.0,57,0.00,,,0.00,462.000000,,2013-09-04 15:12:00,
2013-09-04 11:22:00,70.0,54.0,-100.00,WSW,258,11.0,19.0,57,0.00,,,0.00,462.000000,,2013-09-04 15:22:00,
2013-09-04 11:53:00,72.0,53.0,-100.00,WSW,256,12.0,21.0,51,0.00,,,0.00,610.000000,,2013-09-04 15:53:00,
2013-09-04 12:04:00,72.0,53.0,-100.00,WSW,256,12.0,21.0,51,0.00,,,0.00,610.000000,,2013-09-04 16:04:00,
2013-09-04 12:12:00,72.0,53.0,-100.00,WSW,256,12.0,21.0,51,0.00,,,0.00,610.000000,,2013-09-04 16:12:00,
2013-09-04 12:23:00,72.0,53.0,-100.00,WSW,256,12.0,21.0,51,0.00,,,0.00,610.000000,,2013-09-04 16:23:00,
2013-09-04 12:53:00,75.0,47.0,-100.00,West,264,11.0,21.0,37,0.00,,,0.00,708.000000,,2013-09-04 16:53:00,
2013-09-04 13:03:00,75.0,47.0,-100.00,West,264,11.0,21.0,37,0.00,,,0.00,708.000000,,2013-09-04 17:03:00,
2013-09-04 13:13:00,75.0,47.0,-100.00,West,264,11.0,21.0,37,0.00,,,0.00,708.000000,,2013-09-04 17:13:00,
2013-09-04 13:23:00,75.0,47.0,-100.00,West,264,11.0,21.0,37,0.00,,,0.00,708.000000,,2013-09-04 17:23:00,
2013-09-04 13:53:00,75.0,46.0,-100.00,West,262,12.0,22.0,36,0.00,,,0.00,754.000000,,2013-09-04 17:53:00,
2013-09-04 14:02:00,75.0,46.0,-100.00,West,262,12.0,22.0,36,0.00,,,0.00,754.000000,,2013-09-04 18:02:00,
2013-09-04 14:13:00,75.0,46.0,-100.00,West,262,12.0,22.0,36,0.00,,,0.00,754.000000,,2013-09-04 18:13:00,
2013-09-04 14:22:00,75.0,46.0,-100.00,West,262,12.0,22.0,36,0.00,,,0.00,754.000000,,2013-09-04 18:22:00,
2013-09-04 14:52:00,76.0,54.0,-100.00,WSW,242,11.0,21.0,46,0.00,,,0.00,746.000000,,2013-09-04 18:52:00,
2013-09-04 15:02:00,76.0,54.0,-100.00,WSW,242,11.0,21.0,46,0.00,,,0.00,746.000000,,2013-09-04 19:02:00,
2013-09-04 15:11:00,76.0,54.0,-100.00,WSW,242,11.0,21.0,46,0.00,,,0.00,746.000000,,2013-09-04 19:11:00,
2013-09-04 15:22:00,76.0,54.0,-100.00,WSW,242,11.0,21.0,46,0.00,,,0.00,746.000000,,2013-09-04 19:22:00,
2013-09-04 15:53:00,75.0,58.0,-100.00,SW,234,11.0,23.0,55,0.00,,,0.00,673.000000,,2013-09-04 19:53:00,
2013-09-04 16:02:00,75.0,58.0,-100.00,SW,234,11.0,23.0,55,0.00,,,0.00,673.000000,,2013-09-04 20:02:00,
2013-09-04 16:12:00,75.0,58.0,-100.00,SW,234,11.0,23.0,55,0.00,,,0.00,673.000000,,2013-09-04 20:12:00,
2013-09-04 16:22:00,75.0,58.0,-100.00,SW,234,11.0,23.0,55,0.00,,,0.00,673.000000,,2013-09-04 20:22:00,
2013-09-04 16:54:00,74.0,57.0,-100.00,WSW,238,12.0,25.0,56,0.00,,,0.00,569.000000,,2013-09-04 20:54:00,
2013-09-04 17:02:00,74.0,57.0,-100.00,WSW,238,12.0,25.0,56,0.00,,,0.00,569.000000,,2013-09-04 21:02:00,
2013-09-04 17:12:00,74.0,57.0,-100.00,WSW,238,12.0,25.0,56,0.00,,,0.00,569.000000,,2013-09-04 21:12:00,
2013-09-04 17:22:00,74.0,57.0,-100.00,WSW,238,12.0,25.0,56,0.00,,,0.00,569.000000,,2013-09-04 21:22:00,
2013-09-04 17:54:00,73.0,58.0,-100.00,WSW,239,13.0,24.0,59,0.00,,,0.00,416.000000,,2013-09-04 21:54:00,
2013-09-04 18:04:00,73.0,58.0,-100.00,WSW,239,13.0,24.0,59,0.00,,,0.00,416.000000,,2013-09-04 22:04:00,
2013-09-04 18:14:00,73.0,58.0,-100.00,WSW,239,13.0,24.0,59,0.00,,,0.00,416.000000,,2013-09-04 22:14:00,
2013-09-04 18:23:00,73.0,58.0,-100.00,WSW,239,13.0,24.0,59,0.00,,,0.00,416.000000,,2013-09-04 22:23:00,
2013-09-04 18:55:00,71.0,60.0,-100.00,SW,234,10.0,22.0,69,0.00,,,0.00,142.000000,,2013-09-04 22:55:00,
2013-09-04 19:03:00,71.0,60.0,-100.00,SW,234,10.0,22.0,69,0.00,,,0.00,142.000000,,2013-09-04 23:03:00,
2013-09-04 19:13:00,71.0,60.0,-100.00,SW,234,10.0,22.0,69,0.00,,,0.00,142.000000,,2013-09-04 23:13:00,
2013-09-04 19:22:00,71.0,60.0,-100.00,SW,234,10.0,22.0,69,0.00,,,0.00,142.000000,,2013-09-04 23:22:00,
2013-09-04 19:52:00,69.0,60.0,-100.00,SW,236,8.0,19.0,74,0.00,,,0.00,22.000000,,2013-09-04 23:52:00,
2013-09-04 20:01:00,69.0,60.0,-100.00,SW,236,8.0,19.0,74,0.00,,,0.00,22.000000,,2013-09-05 00:01:00,
2013-09-04 20:12:00,69.0,60.0,-100.00,SW,236,8.0,19.0,74,0.00,,,0.00,22.000000,,2013-09-05 00:12:00,
2013-09-04 20:22:00,69.0,60.0,-100.00,SW,236,8.0,19.0,74,0.00,,,0.00,22.000000,,2013-09-05 00:22:00,
2013-09-04 20:52:00,68.0,62.0,-100.00,WSW,239,7.0,16.0,82,0.00,,,0.00,0.000000,,2013-09-05 00:52:00,
2013-09-04 21:01:00,68.0,62.0,-100.00,WSW,239,7.0,16.0,82,0.00,,,0.00,0.000000,,2013-09-05 01:01:00,
2013-09-04 21:12:00,68.0,62.0,-100.00,WSW,239,7.0,16.0,82,0.00,,,0.00,0.000000,,2013-09-05 01:12:00,
2013-09-04 21:22:00,68.0,62.0,-100.00,WSW,239,7.0,16.0,82,0.00,,,0.00,0.000000,,2013-09-05 01:22:00,
2013-09-04 21:52:00,66.0,63.0,-100.00,WSW,239,5.0,12.0,91,0.03,,,0.03,0.000000,,2013-09-05 01:52:00,
2013-09-04 22:02:00,66.0,63.0,-100.00,WSW,239,5.0,12.0,91,0.03,,,0.03,0.000000,,2013-09-05 02:02:00,
2013-09-04 22:12:00,66.0,63.0,-100.00,WSW,239,5.0,12.0,91,0.03,,,0.03,0.000000,,2013-09-05 02:12:00,
2013-09-04 22:22:00,66.0,63.0,-100.00,WSW,239,5.0,12.0,91,0.03,,,0.03,0.000000,,2013-09-05 02:22:00,
2013-09-04 23:12:00,65.0,63.0,-100.00,WNW,303,3.0,12.0,93,0.02,,,0.05,0.000000,,2013-09-05 03:12:00,
2013-09-04 23:22:00,65.0,63.0,-100.00,WNW,303,3.0,12.0,93,0.02,,,0.05,0.000000,,2013-09-05 03:22:00,
2013-09-04 23:54:00,64.0,61.0,-100.00,WNW,288,3.0,7.0,91,0.00,,,0.05,0.000000,,2013-09-05 03:54:00,